User: anonymous   Login
Location: Stara Lesna
(49.1528°N, 20.2911°E)
Time: 02:59:23
(UTC+01:00)
Language:

Cosmos 1400 Rocket - Orbit

View from above orbital plane
View from above orbital plane
View from above satellite
View from above satellite

Ground track
Ground track

The orbit data is extracted from the following two-line orbital elements,

1 13403U 82079B   19321.88383676 -.00000163 +00000-0 -12274-4 0  9994
2 13403 081.1686 336.7351 0032791 242.5622 117.2266 15.07084512029599
Epoch (UTC): 17 November 2019 21:12:43
Eccentricity: 0.0032791
inclination: 81.1686°
perigee height: 522 km
apogee height: 568 km
right ascension of ascending node: 336.7351°
argument of perigee: 242.5622°
revolutions per day: 15.07084512
mean anomaly at epoch: 117.2266°
orbit number at epoch: 2959

The dashed part of the orbit path shows where the satellite is in the earth's shadow,  

DLR